[[{"header":{"parameterUnit":"m.s-1","parameterCategory":1,"la1":30.2991,"la2":30.254,"lo1":-89.0895,"lo2":-89.0444,"dy":0.0017,"dx":0.0017,"nx":28,"ny":28,"refTime":"2024-08-04T21:00:00:Z","depth":0,"parameterNumber":2,"parameterNumberName":"U-component_of_WINDS"},"data":[0,0,0,0,0,0,0,0,0,0,0,0,0,0,0,0,0,0,0,0,0,0,0,0,0,0,0,0,0,0,0,0,0,0,0,0,0,0,0,0,0,0,0,0,0,0,0,0,0,0,0,0,0,0,0,0,0,0,2.5163,2.5165,0,2.5309,2.5311,2.5312,2.5319,2.5317,2.5315,2.5313,2.5471,2.5477,2.5483,0,0,0,0,0,0,0,0,0,0,0,0,0,2.4899,2.4904,2.5163,2.5165,2.5167,2.5309,2.5311,2.5313,2.5319,2.5317,2.5315,2.5313,2.5469,2.5476,2.5483,0,0,0,0,0,0,0,0,0,0,0,0,0,2.5027,2.4906,2.5163,2.5187,2.519,2.5308,2.5311,2.5313,2.5319,2.5317,2.5314,2.5312,2.5467,2.5476,2.5484,2.5591,0,0,2.5511,2.5515,0,0,0,0,0,0,0,0,2.5019,2.5036,2.5181,2.5185,2.5189,2.5293,2.5276,2.5407,2.532,2.5271,2.5313,2.531,2.5415,2.5427,2.5461,2.5598,2.5605,2.5512,2.5517,2.5521,2.5523,0,0,0,0,0,0,0,2.501,2.503,2.5221,2.5183,2.5188,2.5193,2.5208,2.53,2.5356,2.5275,2.5275,2.5292,2.5416,2.5452,2.5465,2.5607,2.5511,2.5519,2.5525,2.5528,2.5843,2.5846,0,0,0,0,0,0,2.4996,2.5023,2.5216,2.5225,2.5096,2.52,2.5217,2.5262,2.5355,2.5366,2.5294,2.5292,2.5439,2.5454,2.547,2.5603,2.5521,2.5529,2.5534,2.584,2.5844,2.5847,0,0,0,0,0,0,2.499,2.5013,2.521,2.5124,2.515,2.5207,2.5258,2.5267,2.5302,2.5369,2.538,2.532,2.5437,2.5458,2.5561,2.5608,2.5533,2.5541,2.5836,2.5841,2.5845,2.5868,0,0,0,0,0,0,2.4982,2.5011,2.5049,2.5125,2.5154,2.5296,2.5261,2.5271,2.5317,2.5315,2.5397,2.5408,2.5437,2.5548,2.557,2.5619,2.5548,2.5832,2.5838,2.5844,2.5863,2.5873,2.5881,0,0,0,0,0,2.4973,2.5051,2.5051,2.5075,2.5203,2.5298,2.5315,2.5345,2.532,2.5361,2.5405,2.5405,2.5599,2.5558,2.5583,2.5636,2.5829,2.5837,2.5843,2.5859,2.5871,2.5881,0,0,0,0,0,0,2.4982,2.5061,2.5062,2.5167,2.5225,2.5299,2.5352,2.5356,2.5425,2.5421,2.5457,2.5475,2.5578,2.5617,2.557,2.5746,2.5712,2.5724,2.5716,2.5728,2.5736,2.5725,2.5555,0,0,0,0,0,2.4996,2.5063,2.513,2.5216,2.5245,2.5293,2.5336,2.5353,2.5417,2.5443,2.5493,2.5557,2.5633,2.5682,2.5756,2.5869,2.5889,2.5918,2.5927,2.5934,2.5944,2.601,2.6025,2.587,2.587,2.587,0,0,2.5026,2.5077,2.5118,2.5219,2.5267,2.534,2.5314,2.5392,2.5447,2.5455,2.5555,2.5595,2.5669,2.5778,2.5829,2.5814,2.5991,2.5943,2.5948,2.5955,2.6019,2.6033,2.6046,2.5875,2.5874,2.5873,0,0,2.5117,2.5162,2.5239,2.5287,2.5359,2.5391,2.5409,2.5483,2.5509,2.561,2.5618,2.5686,2.5815,2.5868,2.5912,2.6026,2.603,2.6049,2.6096,2.616,2.6172,2.6183,2.6226,2.6241,2.6059,2.6059,2.6059,0,2.5146,2.5252,2.5279,2.5357,2.5403,2.5411,2.5492,2.5539,2.5632,2.5665,2.5646,2.5809,2.586,2.5983,2.601,2.6045,2.607,2.604,2.6167,2.6179,2.619,2.6231,2.6247,2.6061,2.6061,2.6061,2.6061,0,2.5286,2.536,2.5414,2.5502,2.5554,2.5633,2.5675,2.5725,2.5738,2.5773,2.5877,2.5938,2.6025,2.6055,2.607,2.6182,2.617,2.6159,2.6127,2.6206,2.6246,2.6261,2.6064,2.6063,2.6063,2.6062,0,0,2.5386,2.5488,2.5508,2.5549,2.563,2.5689,2.577,2.5853,2.5896,2.5961,2.6032,2.6141,2.6132,2.6182,2.6203,2.6259,2.6348,2.6241,2.6244,2.6261,2.6478,2.6487,2.6504,2.6351,2.6354,2.6357,2.6472,0,2.5488,2.5629,2.5656,2.578,2.5851,2.5862,2.5933,2.5992,2.6027,2.6095,2.6135,2.6213,2.6194,2.6224,2.628,2.6325,2.6393,2.6317,2.6421,2.6424,2.6402,2.6525,2.6534,2.664,2.6488,2.6491,2.6492,0,2.5625,2.5691,2.5821,2.5895,2.5926,2.5988,2.6068,2.6131,2.62,2.6222,2.6279,2.6294,2.6382,2.6345,2.6469,2.6417,2.6461,2.649,2.6495,2.6507,2.6463,2.6542,2.6674,2.6691,2.6517,2.6515,2.6513,0,2.5688,2.581,2.5904,2.5939,2.6026,2.607,2.611,2.6175,2.6224,2.6294,2.6327,2.6408,2.6452,2.6516,2.6554,2.6523,2.6676,2.6641,2.67,2.6699,2.6732,2.673,2.6875,2.6758,2.6758,2.6758,2.6757,0,2.5799,2.5879,2.5933,2.5992,2.6083,2.6115,2.6206,2.6245,2.6304,2.6372,2.6387,2.6452,2.6497,2.6569,2.66,2.67,2.6719,2.6742,2.675,2.6741,2.6739,2.6772,2.6766,2.6762,2.6761,2.676,2.6759,0,2.5884,2.5924,2.6028,2.6102,2.6123,2.6187,2.6252,2.6311,2.6346,2.6433,2.6456,2.6513,2.6599,2.6642,2.675,2.6771,2.6883,2.6886,2.6859,2.6863,2.6919,2.6914,2.7092,2.7118,2.6982,2.6984,2.6985,0,2.5953,2.6015,2.6096,2.6141,2.6181,2.6255,2.6304,2.634,2.6392,2.6476,2.6525,2.6611,2.6682,2.6819,2.6872,2.6955,2.6961,2.7018,2.6974,2.6964,2.6964,2.696,2.6968,2.7026,2.7027,2.7028,2.7029,0,2.6072,2.6089,2.6158,2.6236,2.6294,2.6357,2.6419,2.6457,2.6503,2.6561,2.6648,2.6703,2.6812,2.6899,2.6986,2.703,2.7039,2.7042,2.7061,2.7054,2.7036,2.7048,2.6882,2.7038,2.7037,2.7037,2.7036,2.7036,2.6153,2.6209,2.6275,2.6352,2.6403,2.6461,2.652,2.6563,2.6635,2.6726,2.6744,2.6836,2.6907,2.7024,2.7071,2.7146,2.7134,2.716,2.7167,2.7173,2.7177,2.7023,2.7162,2.7162,2.7162,2.7162,2.7161,0,2.6274,2.6317,2.6388,2.6474,2.6536,2.6536,2.6606,2.6659,2.674,2.6803,2.6872,2.6974,2.7058,2.7118,2.7205,2.7253,2.726,2.7275,2.7273,2.7283,2.7182,2.7158,2.7269,2.7269,2.7269,2.7269,2.7269,2.7269,2.6344,2.6439,2.6464,2.6586,2.663,2.6719,2.6759,2.6814,2.6865,2.6977,2.7046,2.7084,2.7148,2.7239,2.7318,2.7333,2.7366,2.7381,2.7397,2.7301,2.729,2.7279,2.7257,2.7387,2.7387,2.7493,2.7494,2.7494]},{"header":{"parameterUnit":"m.s-1","parameterCategory":1,"la1":30.2991,"la2":30.254,"lo1":-89.0895,"lo2":-89.0444,"dy":0.0017,"dx":0.0017,"nx":28,"ny":28,"refTime":"2024-08-04T21:00:00:Z","depth":0,"parameterNumber":3,"parameterNumberName":"V-component_of_WINDS"},"data":[0,0,0,0,0,0,0,0,0,0,0,0,0,0,0,0,0,0,0,0,0,0,0,0,0,0,0,0,0,0,0,0,0,0,0,0,0,0,0,0,0,0,0,0,0,0,0,0,0,0,0,0,0,0,0,0,0,0,2.1639,2.1641,0,2.1836,2.1839,2.1841,2.1775,2.177,2.1766,2.1762,2.1963,2.1972,2.1981,0,0,0,0,0,0,0,0,0,0,0,0,0,2.1201,2.1209,2.1639,2.1642,2.1644,2.1836,2.1839,2.1841,2.1775,2.177,2.1765,2.176,2.196,2.1971,2.1982,0,0,0,0,0,0,0,0,0,0,0,0,0,2.1394,2.1212,2.1639,2.1634,2.1636,2.1836,2.1839,2.1842,2.1777,2.177,2.1764,2.1758,2.1956,2.197,2.1983,2.2199,0,0,2.2026,2.2032,0,0,0,0,0,0,0,0,2.1383,2.141,2.1632,2.1635,2.1637,2.1774,2.1758,2.1962,2.1778,2.1723,2.1762,2.1754,2.1905,2.1923,2.1974,2.2208,2.2217,2.2027,2.2036,2.2042,2.2046,0,0,0,0,0,0,0,2.137,2.1401,2.1717,2.1636,2.1639,2.1621,2.1641,2.1796,2.1848,2.1727,2.1723,2.1747,2.1905,2.1961,2.1978,2.222,2.2027,2.2039,2.2048,2.2054,2.2635,2.2642,0,0,0,0,0,0,2.1355,2.139,2.1711,2.1723,2.1492,2.1634,2.1657,2.1737,2.1846,2.1856,2.1753,2.1744,2.194,2.1962,2.1985,2.2241,2.2042,2.2055,2.2063,2.2628,2.2637,2.2644,0,0,0,0,0,0,2.1346,2.1385,2.1703,2.1556,2.1595,2.1648,2.1739,2.1744,2.18,2.1865,2.1874,2.18,2.1936,2.1965,2.2145,2.2247,2.2061,2.2074,2.262,2.2631,2.264,2.2757,0,0,0,0,0,0,2.1334,2.1382,2.1466,2.1558,2.1603,2.1862,2.1745,2.1753,2.1824,2.1814,2.1912,2.1922,2.1933,2.2125,2.2159,2.2263,2.2085,2.2611,2.2625,2.2637,2.2744,2.277,2.2793,0,0,0,0,0,2.1319,2.1492,2.147,2.1509,2.1709,2.1868,2.1893,2.1903,2.1833,2.1916,2.1957,2.1919,2.2231,2.2144,2.2182,2.2292,2.2604,2.2621,2.2636,2.2734,2.2765,2.2792,0,0,0,0,0,0,2.141,2.1504,2.1481,2.1689,2.1771,2.1856,2.1962,2.1937,2.204,2.2026,2.2033,2.2055,2.2239,2.2283,2.2185,2.2503,2.2407,2.2431,2.2468,2.2499,2.2522,2.2507,2.2097,0,0,0,0,0,2.1455,2.1577,2.1651,2.1828,2.187,2.1909,2.1979,2.1978,2.2063,2.2097,2.2152,2.2235,2.235,2.2427,2.2538,2.275,2.2769,2.2844,2.2868,2.2888,2.2908,2.302,2.3053,2.2696,2.2696,2.2696,0,0,2.1548,2.1614,2.1691,2.1848,2.1911,2.2035,2.1939,2.2075,2.2167,2.2118,2.229,2.2333,2.2425,2.2621,2.271,2.2664,2.3011,2.2908,2.2923,2.2933,2.3039,2.3073,2.3103,2.2707,2.2705,2.2703,0,0,2.1781,2.1844,2.1996,2.2061,2.2157,2.2181,2.2218,2.2307,2.2333,2.2506,2.247,2.2578,2.2779,2.2845,2.2905,2.3158,2.3125,2.3194,2.332,2.3428,2.3456,2.3481,2.3568,2.36,2.3215,2.3215,2.3215,0,2.1884,2.2071,2.2077,2.2216,2.2284,2.2245,2.2397,2.2459,2.2587,2.2634,2.258,2.2829,2.2889,2.3097,2.3158,2.3209,2.3249,2.3183,2.3452,2.3477,2.35,2.3583,2.3616,2.3222,2.3222,2.3221,2.322,0,2.2192,2.2322,2.2433,2.2556,2.2637,2.2782,2.2808,2.2889,2.288,2.291,2.3084,2.3154,2.3276,2.3325,2.332,2.3532,2.35,2.345,2.3352,2.3542,2.362,2.3652,2.3233,2.3231,2.3228,2.3226,0,0,2.249,2.2612,2.2653,2.2706,2.2808,2.2907,2.3049,2.3168,2.3235,2.3324,2.3441,2.3609,2.3562,2.363,2.363,2.3726,2.3917,2.3663,2.3665,2.3705,2.4151,2.4188,2.4225,2.3896,2.3902,2.3907,2.4142,0,2.2729,2.2978,2.2986,2.3213,2.3331,2.3293,2.3415,2.3489,2.352,2.3622,2.3655,2.3773,2.3703,2.3743,2.3836,2.3874,2.4006,2.3857,2.4002,2.4007,2.3978,2.4266,2.4306,2.4525,2.4173,2.4179,2.4182,0,2.3042,2.3139,2.3377,2.3458,2.3508,2.3618,2.3725,2.3825,2.3907,2.3922,2.3996,2.3981,2.4122,2.4021,2.4213,2.4112,2.4171,2.4198,2.4207,2.422,2.4105,2.4284,2.4596,2.4628,2.4231,2.4227,2.4224,0,2.3232,2.3422,2.3588,2.3636,2.3735,2.3812,2.3857,2.3933,2.4002,2.4096,2.414,2.4249,2.4308,2.4392,2.4405,2.4331,2.4598,2.4498,2.4612,2.4611,2.4669,2.4665,2.4993,2.4711,2.471,2.4709,2.4709,0,2.3497,2.3644,2.3674,2.3777,2.3938,2.3944,2.4104,2.4142,2.4209,2.4316,2.429,2.439,2.4403,2.4507,2.4518,2.4674,2.4701,2.4715,2.4716,2.4717,2.4715,2.4755,2.4739,2.4718,2.4716,2.4714,2.4713,0,2.3737,2.3764,2.3942,2.402,2.4043,2.4158,2.4224,2.432,2.4346,2.4482,2.4514,2.4554,2.4674,2.4696,2.4838,2.4845,2.503,2.5016,2.5002,2.5,2.5111,2.5099,2.5475,2.5523,2.5211,2.5214,2.5216,0,2.3904,2.4016,2.4105,2.4175,2.4223,2.4336,2.4406,2.4416,2.4489,2.4588,2.4672,2.4789,2.4882,2.5075,2.5116,2.5222,2.521,2.5334,2.5226,2.5221,2.5209,2.5201,2.5211,2.5354,2.5358,2.5361,2.5363,0,2.4197,2.4203,2.4306,2.4413,2.4497,2.4582,2.4662,2.472,2.4739,2.4822,2.4944,2.5017,2.516,2.5275,2.538,2.5423,2.5396,2.5396,2.5428,2.5429,2.5415,2.5421,2.5057,2.5388,2.5385,2.5383,2.5382,2.5381,2.4404,2.4499,2.4576,2.469,2.4751,2.4825,2.4918,2.4955,2.5057,2.5174,2.5172,2.5305,2.5379,2.5518,2.5568,2.567,2.563,2.5677,2.5688,2.5699,2.5708,2.54,2.5689,2.5689,2.5688,2.5688,2.5687,0,2.4692,2.4739,2.4844,2.4956,2.5045,2.5011,2.5096,2.5172,2.5289,2.5361,2.5453,2.5591,2.5701,2.5749,2.5857,2.5929,2.5918,2.5957,2.5951,2.596,2.5739,2.57,2.5963,2.5963,2.5963,2.5963,2.5963,2.5963,2.4853,2.5012,2.5027,2.5215,2.526,2.539,2.5441,2.5508,2.5565,2.572,2.5811,2.5842,2.5903,2.6014,2.6113,2.6124,2.6163,2.6207,2.6212,2.6004,2.5976,2.595,2.5913,2.6216,2.6217,2.6425,2.6427,2.6428]}]]